Regional Weather Roundup
Issued by NWS

Home | Current Version | Previous Version | Graphics & Text | Print | Product List | Glossary On
Versions: 1 2 3 4 5 6 7 8 9 10 11 12 13 14 15 16 17 18 19 20 21 22 23 24 25 26 27
000
ASUS45 KTFX 172010
RWRMT
MONTANA REGIONAL WEATHER ROUNDUP
NATIONAL WEATHER SERVICE GREAT FALLS MT
100 PM MST WED JAN 17 2018

NOTE: "FAIR" INDICATES FEW OR NO CLOUDS BELOW 12000 FEET WITH NO
SIGNIFICANT WEATHER AND/OR OBSTRUCTIONS TO VISIBILITY.

MTZ001>007-043-172100-
WEST OF THE DIVIDE

CITY           SKY/WX    TMP DP  RH WIND       PRES   REMARKS
KALISPELL      CLOUDY    29  28  96 CALM      30.18F FOG
MISSOULA       FAIR      27  24  89 W5        30.21F
BUTTE          FAIR      28  18  66 NW3       30.23F
MULLAN PASS    CLOUDY    30  26  85 VRB7      30.13R WCI  23
ANACONDA         N/A     37  21  52 SE14      30.19F WCI  29
DEER LODGE       N/A     36  23  60 S14       30.20F WCI  27
EUREKA           N/A     28  25  86 MISG      30.18F
HAMILTON         N/A     39  28  65 N5        30.18F
RONAN          FOG       27  27 100 SW6       30.18F VSB 0   WCI  20
$$

MTZ008-052>055-172100-
SOUTHWEST MONTANA

CITY           SKY/WX    TMP DP  RH WIND       PRES   REMARKS
BOZEMAN        FAIR      25  17  72 SE6       30.26F WCI  18
DILLON         FAIR      29  19  66 S9        30.26F WCI  20
ENNIS          MOSUNNY   39  23  52 S16G25    30.29F WCI  30
W YELLOWSTONE  FAIR      21  14  73 NE3       30.36F
THREE FORKS      N/A     28  21  75 CALM      30.21F
$$

MTZ009-010-012-014-046-048-049-054-172100-
EAST SLOPES AND CENTRAL MONTANA

CITY           SKY/WX    TMP DP  RH WIND       PRES   REMARKS
CUT BANK       FAIR      40  23  50 SW12      30.02F
GREAT FALLS    FAIR      41  24  51 SW16      30.08F
MALMSTROM AFB  FAIR      40  27  59 SW17      30.09F
HELENA         FAIR      20  17  88 CALM      30.23F FOG
AUGUSTA        FAIR      34  25  68 S15       30.06F WCI  24
BOWMANS CRNR   FAIR      33  22  64 S31       30.06F WCI  19
CHOTEAU          N/A     37  23  56 SW6       30.07F
FAIRFIELD      FAIR      37  23  56 S20G25    30.06F WCI  26
POWER          FAIR      37  24  61 S15       30.06F WCI  28
ULM            PTSUNNY   38  26  61 SW8       30.09F
WHITE SULPHUR    N/A     36  21  55 S16       30.18F WCI  26
$$

MTZ011-013-016-021-045-047-050-051-172100-
NORTH CENTRAL MONTANA

CITY           SKY/WX    TMP DP  RH WIND       PRES   REMARKS
HAVRE          FAIR      31  24  75 W8        30.08F WCI  23
LEWISTOWN      FAIR      44  16  32 W6        30.13F
N BAR RANCH    FAIR      46  16  29 NW14      30.14F
CHINOOK          N/A     32  23  69 E5        30.08F
DENTON         FAIR      34  23  63 MISG      30.07F
GEYSER         FAIR      44  25  47 SW7       30.10F
GRASS RANGE    FAIR      45  16  31 W5        30.10F
STANFORD       FAIR      43  24  46 W13       30.12F
WINIFRED       FAIR      42  21  44 SW9       30.10F
$$

MTZ017>020-022>027-061-062-172100-
NORTHEAST MONTANA

CITY           SKY/WX    TMP DP  RH WIND       PRES   REMARKS
GLASGOW        FAIR      20   8  60 CALM      30.10F
GLENDIVE       FAIR      25  17  72 SE9       30.16F WCI  15
JORDAN           N/A     33  24  69 W3        30.13F
MALTA          SUNNY     21  14  73 CALM      30.10F
SIDNEY         FAIR      28  19  69 S13       30.12F WCI  17
WOLF POINT     FAIR      21  11  65 W8        30.11F WCI  11
PLENTYWOOD       N/A     36  23  60 W21       30.02F WCI  24
POPLAR           N/A     19  12  73 SW8       30.12F WCI   9
SCOBEY           N/A     35  18  50 SW23      30.00F WCI  23
$$

MTZ028>42-056>058-172100-
SOUTHCENTRAL AND SOUTHEAST MONTANA

CITY           SKY/WX    TMP DP  RH WIND       PRES   REMARKS
BAKER          FAIR      31  23  72 W15       30.17F WCI  20
BILLINGS       FAIR      38  19  46 SW14      30.20F WCI  30
LIVINGSTON     FAIR      40  24  53 S6        30.21F
MILES CITY     FAIR      19  12  74 SW3       30.19F
BIG TIMBER     SUNNY     41  23  48 W29       30.20F
EKALAKA          N/A     35  18  50 SW10      30.13F WCI  27
FORSYTH          N/A     25  10  54 CALM      30.20F
HARLOWTON      FAIR      39  26  58 W13       30.17F WCI  32
LAUREL           N/A     39  19  45 SW20      30.21F WCI  30
$$

REGIONAL REPORTS...DAKOTAS

CITY           SKY/WX    TMP DP  RH WIND       PRES   REMARKS
WILLISTON      FAIR      32  21  64 W16       30.07F WCI  21
MINOT          FAIR      36  21  54 SW20G26   29.96F WCI  25
DICKINSON      FAIR      37  23  56 W21       30.08F WCI  26
BEACH          FAIR      30  19  64 W23       30.15F WCI  17
CROSBY         FAIR      32  21  64 SW21G26   29.99F WCI  20
TIOGA          FAIR      30  21  69 W17       30.04S WCI  18
WATFORD CITY   FAIR      36  23  60 W14G20    30.08F WCI  27
BISMARCK       FAIR      38  25  59 W17       30.08F WCI  28
GRAND FORKS    FAIR      30  23  75 W9        29.90F WCI  22
FARGO          FAIR      25  16  68 SW14      30.01F WCI  13
BUFFALO SD       N/A     34  24  67 W13       30.12F WCI  25
RAPID CITY     FAIR      45  29  53 N12       30.22F
$$

REGIONAL REPORTS...WYOMING/IDAHO/WASHINGTON

CITY           SKY/WX    TMP DP  RH WIND       PRES   REMARKS
GILLETTE         N/A     40  32  73 MISG      30.24F
SHERIDAN       FAIR      44  23  43 S3        30.20F
BUFFALO WY     FAIR      41  15  35 S15       30.24F
CODY           FAIR      25  15  66 N3        30.24F
YELLOWSTONE LA   N/A     20  16  84 E5        30.36F
IDAHO FALLS    FAIR      36  28  73 N6        30.38F WCI  31
SALMON         FAIR      32  23  69 NE3       30.39F
BOISE          CLOUDY    42  33  70 SE13      30.34F
SPOKANE        CLOUDY    35  35 100 NE7       30.14F WCI  29
$$

REGIONAL REPORTS...ALBERTA

CITY           SKY/WX    TMP DP  RH WIND       PRES   REMARKS
CALGARY        PTSUNNY   39  14  35 S5        29.87F
CARDSTON         N/A     45  19  36 MISG        N/A
EDMONTON       SUNNY     39  21  48 SW7       29.83F
FORT MCMURRAY  CLOUDY    37  32  81 W10G18    29.66F WCI  30
HIGH LEVEL     MOSUNNY   25  21  86 S6        29.60F WCI  18
LETHBRIDGE     PTSUNNY   36  25  64 SW6       29.97F WCI  31
LLOYDMINSTER   MOSUNNY   39  25  56 W20G30    29.81F WCI  30
MEDICINE HAT   MOSUNNY   37  27  65 SW15G22   29.98F WCI  28
MILK RIVER       N/A     36  21  55 S5          N/A
PEACE RIVER    MOSUNNY   25  23  93 S5        29.73F
PINCHER CREEK  PTSUNNY   39  23  52 W21       29.96F WCI  29
WATERTON GATE    N/A     45  19  36 SW20G30     N/A
$$

REGIONAL REPORTS...SASKATCHEWAN

CITY           SKY/WX    TMP DP  RH WIND       PRES   REMARKS
CORONACH         N/A     32  21  64 W23G29      N/A  WCI  19
CYPRESS HILLS    N/A     41  10  28 W9          N/A
ESTEVAN        MOSUNNY   37  25  60 W20G26    29.94F WCI  27
MOOSE JAW        N/A     39  25  56 W24G30      N/A  WCI  28
PRINCE ALBERT  PTSUNNY   25  19  80 NW15G21   29.71F WCI  12
REGINA         PTSUNNY   37  28  70 W17G28    29.88F WCI  28
ROCKGLEN         N/A     28  19  69 W15         N/A  WCI  17
SASKATOON      PTSUNNY   39  30  70 W20G28    29.80S WCI  30
SWIFT CURRENT  SUNNY     37  23  56 W22G31    29.95F WCI  27
VAL MARIE        N/A     27  19  74 W9          N/A  WCI  17
$$




USA.gov is the U.S. government's official web portal to all federal, state and local government web resources and services.